KTXEAGLE7 Weather Reports


time (UTC)temp
F
wind
direction
speed
knots
gust
knots
rain 1hr
in
rain 24hr
in
rain mn
in
humidity
%
barometer
mb
20260505153021 76 194 9.6 16.5 0.00 0.00 0.00 93 1009.9
20260505151520 75 211 7.8 16.5 0.00 0.00 0.00 94 1009.8
20260505130106 71 182 6.1 8.7 0.00 0.00 0.00 99 1009.7
20260505124558 71 162 4.3 8.7 0.00 0.00 0.00 99 1009.7
20260505123056 70 179 2.6 6.1 0.00 0.00 0.00 99 1009.7
20260505121615 69 172 1.7 4.3 0.00 0.00 0.00 99 1009.2
20260505120053 69 182 3.5 5.2 0.00 0.00 0.00 99 1009.1
20260505114551 69 164 1.7 5.2 0.00 0.00 0.00 99 1008.9
20260505113050 69 156 1.7 4.3 0.00 0.00 0.00 99 1009.0
20260505111549 69 154 2.6 5.2 0.00 0.00 0.00 98 1008.8
20260505101554 68 178 2.6 5.2 0.00 0.00 0.00 98 1009.0
20260505100045 68 163 2.6 4.3 0.00 0.00 0.00 98 1008.8
20260505094543 69 163 1.7 4.3 0.00 0.00 0.00 97 1009.4
20260505093044 68 173 3.5 4.3 0.00 0.00 0.00 97 1009.4
20260505091542 68 164 0.9 2.6 0.00 0.00 0.00 97 1009.2
20260505090055 68 187 0.9 3.5 0.00 0.00 0.00 97 1009.4
20260505084548 68 187 2.6 5.2 0.00 0.00 0.00 97 1009.4
20260505083039 68 165 0.9 4.3 0.00 0.00 0.00 96 1009.7
20260505081542 68 192 0.9 3.5 0.00 0.00 0.00 96 1010.0
20260505080034 68 192 2.6 7.0 0.00 0.00 0.00 96 1010.0
20260505074535 68 172 3.5 6.1 0.00 0.00 0.00 96 1009.8
20260505073037 68 158 3.5 7.0 0.00 0.00 0.00 96 1010.0
20260505071531 69 160 3.5 7.0 0.00 0.00 0.00 95 1010.0
20260505070029 69 168 5.2 9.6 0.00 0.00 0.00 95 1010.1
20260505064526 69 175 5.2 9.6 0.00 0.00 0.00 95 1010.3
20260505063026 68 176 4.3 10.4 0.00 0.00 0.00 95 1010.7
20260505061523 69 169 4.3 8.7 0.00 0.00 0.00 94 1010.6
20260505060029 68 165 4.3 7.8 0.00 0.00 0.00 95 1010.8
20260505054531 68 177 4.3 7.0 0.00 0.00 0.00 94 1011.0
20260505053017 68 192 2.6 6.1 0.00 0.00 0.00 94 1011.1
20260505051515 69 175 2.6 6.1 0.00 0.00 0.00 93 1011.3
20260505041511 69 155 2.6 6.1 0.00 0.00 0.00 91 1011.6
20260505040011 70 170 3.5 7.0 0.00 0.00 0.00 91 1011.4
20260505034509 70 167 4.3 7.8 0.00 0.00 0.00 90 1011.5
20260505033016 70 161 4.3 7.8 0.00 0.00 0.00 89 1011.8
20260505031509 70 160 4.3 8.7 0.00 0.00 0.00 89 1011.8
20260505030008 71 147 5.2 9.6 0.00 0.00 0.00 88 1011.6
20260505024507 71 168 5.2 11.3 0.00 0.00 0.00 88 1011.3
20260505023007 71 170 4.3 7.8 0.00 0.00 0.00 87 1011.3
20260505021507 71 146 4.3 9.6 0.00 0.00 0.00 86 1011.4
20260505020006 71 181 5.2 8.7 0.00 0.00 0.00 86 1011.2
20260505014509 72 163 4.3 7.8 0.00 0.00 0.00 85 1011.2
20260505013006 72 153 4.3 7.8 0.00 0.00 0.00 84 1011.0
20260505011506 73 185 6.1 9.6 0.00 0.00 0.00 82 1010.6
20260505010004 74 159 6.1 11.3 0.00 0.00 0.00 81 1010.9
20260505004505 75 185 4.3 12.2 0.00 0.00 0.00 79 1011.0
20260505003103 75 181 7.0 13.9 0.00 0.00 0.00 78 1010.8
20260505001559 75 173 7.8 13.9 0.00 0.00 0.00 77 1010.8
20260504234613 77 214 8.7 13.9 0.00 0.00 0.00 77 1010.8
20260504233050 77 168 13.0 18.2 0.00 0.00 0.00 74 1011.1
20260504231553 78 194 11.3 18.2 0.00 0.00 0.00 74 1011.2
20260504230044 78 181 10.4 13.9 0.00 0.00 0.00 73 1011.4
20260504224543 77 202 9.6 17.4 0.00 0.00 0.00 74 1011.4
20260504223043 77 178 9.6 19.1 0.00 0.00 0.00 74 1011.5
20260504221544 77 171 8.7 18.2 0.00 0.00 0.00 74 1011.6
20260504220040 78 193 10.4 15.6 0.00 0.00 0.00 72 1011.7
20260504214540 78 173 6.1 14.8 0.00 0.00 0.00 75 1012.0
20260504213036 78 182 9.6 15.6 0.00 0.00 0.00 74 1012.2
20260504211533 78 178 9.6 17.4 0.00 0.00 0.00 75 1012.6
20260504210033 78 170 8.7 15.6 0.00 0.00 0.00 73 1012.8
20260504204608 78 163 11.3 16.5 0.00 0.00 0.00 71 1012.9
20260504203031 78 180 11.3 16.5 0.00 0.00 0.00 70 1012.9
20260504201528 79 171 8.7 14.8 0.00 0.00 0.00 70 1013.1
20260504200033 79 187 9.6 15.6 0.00 0.00 0.00 70 1013.5
20260504194527 78 171 7.8 17.4 0.00 0.00 0.00 72 1013.6
20260504193025 78 198 8.7 15.6 0.00 0.00 0.00 72 1013.7
20260504191521 78 186 8.7 14.8 0.00 0.00 0.00 67 1014.0
20260504190020 78 182 7.0 14.8 0.00 0.00 0.00 71 1014.1
20260504184520 78 196 7.0 14.8 0.00 0.00 0.00 70 1014.2
20260504183018 77 176 7.0 14.8 0.00 0.00 0.00 69 1014.4
20260504181515 77 175 9.6 13.9 0.00 0.00 0.00 69 1014.7
20260504180014 77 188 10.4 14.8 0.00 0.00 0.00 69 1014.6
20260504174512 76 178 7.0 14.8 0.00 0.00 0.00 71 1014.9
20260504173011 76 168 7.0 15.6 0.00 0.00 0.00 71 1015.1
20260504171532 76 182 7.0 13.0 0.00 0.00 0.00 73 1015.1